Location: Rotheul
(50.2849°N, 11.2349°E)
Time: 09:03:45
(UTC+01:00)

ISS - Pass Details

Date: 18 May 2018
Orbit: 401 x 408 km, 51.6° (Epoch: 20 December)

Event Time Altitude Azimuth Distance (km) Brightness Sun altitude
Exits shadow 00:28:22 11° 81° (E) 1,393 -1.1 -19.6°
Drops below altitude 10° 00:28:32 10° 80° (E) 1,456 -1.0 -19.6°
Enters shadow 01:39:23 -40° 258° (WSW) 8,850 2.9 -20.0°
Maximum altitude 02:02:00 73° 351° (N) 425 -3.7 -19.3°
